TimeEET,TemperatureF,Dew PointF,Humidity,Sea Level PressureIn,VisibilityMPH,Wind Direction,Wind SpeedMPH,Gust SpeedMPH,PrecipitationIn,Events,Conditions,WindDirDegrees,DateUTC
12:50 AM,59.0,53.6,82,30.06,6.2,Variable,2.3,-,N/A,,Mostly Cloudy,0,2012-11-19 22:50:00
1:50 AM,60.8,53.6,77,30.06,6.2,Calm,Calm,-,N/A,,Mostly Cloudy,0,2012-11-19 23:50:00
2:00 AM,60,53,72,30.06,6,Calm,Calm,,,,Partly Cloudy,,2012-11-20 00:00:00
2:50 AM,62.6,53.6,72,30.06,6.2,Calm,Calm,-,N/A,,Mostly Cloudy,0,2012-11-20 00:50:00
3:50 AM,62.6,53.6,72,30.04,6.2,ESE,5.8,-,N/A,,Mostly Cloudy,120,2012-11-20 01:50:00
4:20 AM,62.6,53.6,72,30.04,6.2,ESE,5.8,-,N/A,,Mostly Cloudy,120,2012-11-20 02:20:00
4:50 AM,62.6,53.6,72,30.04,6.2,East,8.1,-,N/A,,Mostly Cloudy,90,2012-11-20 02:50:00
5:20 AM,62.6,53.6,72,30.04,6.2,East,8.1,-,N/A,,Mostly Cloudy,90,2012-11-20 03:20:00
5:50 AM,62.6,55.4,77,30.04,6.2,Calm,Calm,-,N/A,,Mostly Cloudy,0,2012-11-20 03:50:00
6:20 AM,62.6,55.4,77,30.04,6.2,Calm,Calm,-,N/A,,Mostly Cloudy,0,2012-11-20 04:20:00
6:50 AM,62.6,55.4,77,30.04,6.2,East,6.9,-,N/A,,Mostly Cloudy,80,2012-11-20 04:50:00
7:20 AM,62.6,55.4,77,30.04,6.2,East,10.4,-,N/A,,Mostly Cloudy,90,2012-11-20 05:20:00
7:50 AM,62.6,55.4,77,30.04,6.2,WNW,3.5,-,N/A,,Mostly Cloudy,300,2012-11-20 05:50:00
8:00 AM,63,56,70,30.04,6,WNW,3.5,,,,Partly Cloudy,300,2012-11-20 06:00:00
8:20 AM,62.6,55.4,77,30.04,6.2,WNW,3.5,-,N/A,,Mostly Cloudy,300,2012-11-20 06:20:00
8:50 AM,62.6,55.4,77,30.04,6.2,Calm,Calm,-,N/A,,Mostly Cloudy,0,2012-11-20 06:50:00
9:20 AM,64.4,55.4,73,30.04,6.2,Calm,Calm,-,N/A,,Mostly Cloudy,0,2012-11-20 07:20:00
9:50 AM,66.2,57.2,73,30.04,6.2,ENE,4.6,-,N/A,,Scattered Clouds,60,2012-11-20 07:50:00
10:20 AM,66.2,57.2,73,30.04,6.2,ENE,4.6,-,N/A,,Scattered Clouds,60,2012-11-20 08:20:00
10:50 AM,66.2,55.4,68,30.04,6.2,Calm,Calm,-,N/A,,Scattered Clouds,0,2012-11-20 08:50:00
11:20 AM,68.0,55.4,64,30.04,6.2,Calm,Calm,-,N/A,,Scattered Clouds,0,2012-11-20 09:20:00
11:50 AM,69.8,57.2,64,30.04,6.2,Variable,3.5,-,N/A,,Scattered Clouds,0,2012-11-20 09:50:00
12:20 PM,69.8,57.2,64,30.04,6.2,Variable,3.5,-,N/A,,Scattered Clouds,0,2012-11-20 10:20:00
12:50 PM,68.0,55.4,64,30.04,6.2,SSW,5.8,-,N/A,,Mostly Cloudy,210,2012-11-20 10:50:00
1:20 PM,68.0,55.4,64,30.04,6.2,SSW,5.8,-,N/A,,Mostly Cloudy,210,2012-11-20 11:20:00
1:50 PM,66.2,57.2,73,30.04,6.2,Variable,3.5,-,N/A,Rain,Light Rain,0,2012-11-20 11:50:00
2:00 PM,66,58,67,30.04,6,,3.5,,,Rain,Light Rain,,2012-11-20 12:00:00
2:20 PM,66.2,57.2,73,30.04,6.2,Variable,3.5,-,N/A,,Mostly Cloudy,0,2012-11-20 12:20:00
2:50 PM,66.2,57.2,73,30.04,6.2,South,4.6,-,N/A,,Mostly Cloudy,170,2012-11-20 12:50:00
3:20 PM,64.4,59.0,83,30.04,6.2,SSE,5.8,-,N/A,,Mostly Cloudy,160,2012-11-20 13:20:00
3:50 PM,64.4,59.0,83,30.04,6.2,SSE,4.6,-,N/A,,Mostly Cloudy,150,2012-11-20 13:50:00
4:20 PM,64.4,59.0,83,30.04,6.2,Variable,2.3,-,N/A,,Mostly Cloudy,0,2012-11-20 14:20:00
4:50 PM,62.6,59.0,88,30.04,6.2,Calm,Calm,-,N/A,,Mostly Cloudy,0,2012-11-20 14:50:00
5:20 PM,62.6,59.0,88,30.04,6.2,Calm,Calm,-,N/A,,Mostly Cloudy,0,2012-11-20 15:20:00
5:50 PM,62.6,59.0,88,30.04,6.2,Calm,Calm,-,N/A,,Mostly Cloudy,0,2012-11-20 15:50:00
6:20 PM,62.6,57.2,82,30.04,6.2,Calm,Calm,-,N/A,,Mostly Cloudy,0,2012-11-20 16:20:00
6:50 PM,62.6,57.2,82,30.04,6.2,Calm,Calm,-,N/A,,Mostly Cloudy,0,2012-11-20 16:50:00
7:20 PM,60.8,57.2,88,30.04,6.2,Calm,Calm,-,N/A,,Mostly Cloudy,0,2012-11-20 17:20:00
7:50 PM,60.8,57.2,88,30.04,6.2,Calm,Calm,-,N/A,,Mostly Cloudy,0,2012-11-20 17:50:00
8:00 PM,62,58,81,30.05,6,Calm,Calm,,,,Partly Cloudy,,2012-11-20 18:00:00
8:20 PM,60.8,57.2,88,30.04,6.2,Calm,Calm,-,N/A,,Mostly Cloudy,0,2012-11-20 18:20:00
8:50 PM,60.8,57.2,88,30.04,6.2,Calm,Calm,-,N/A,,Mostly Cloudy,0,2012-11-20 18:50:00
9:20 PM,60.8,57.2,88,30.04,6.2,Variable,2.3,-,N/A,,Mostly Cloudy,0,2012-11-20 19:20:00
9:50 PM,60.8,57.2,88,30.06,6.2,Variable,2.3,-,N/A,,Mostly Cloudy,0,2012-11-20 19:50:00